Regional Weather Roundup
Issued by NWS

Current Version | Previous Version | Text Only | Print | Product List | Glossary On
Versions: 1 2 3 4 5 6 7 8 9 10 11 12 13 14 15 16 17 18 19 20 21 22 23 24 25 26 27 28 29 30 31 32 33 34 35 36 37 38 39 40 41 42 43 44 45 46 47 48 49 50
000
ASCA44 KEWX 261920
RWRMX

LATIN AMERICA AND CARIBBEAN REGIONAL WEATHER ROUNDUP
NATIONAL WEATHER SERVICE AUSTIN/SAN ANTONIO TX
200 PM CDT SAT JUL 26 2014

NOTE: "FAIR" INDICATED FEW OR NO CLOUDS BELOW 12,000 FEET WITH NO
SIGNIFICANT WEATHER AND/OR OBSTRUCTIONS TO VISIBILITY.

BAJA CALIFORNIA

CITY           SKY/WX    TMP DP  RH WIND       PRES   REMARKS
LORETO         CLOUDY    88  72  58 CALM      29.89F HX  94
LA PAZ         MOSUNNY   90  70  51 N10       29.94  HX  95
MEXICALI       MOSUNNY   99  64  32 SE9       29.87  HX 101
S.J. DEL CABO  MOSUNNY   93  63  36 S3        29.94F HX  94
TIJUANA        MOSUNNY   82  61  47 SW6       30.00F

NORTHWESTERN MEXICO

CITY           SKY/WX    TMP DP  RH WIND       PRES   REMARKS
CULIACAN       MOSUNNY   95  73  49 NW12      29.94  HX 105
DURANGO        PTSUNNY   77  48  36 NE6       30.30
GUAYMAS        PTSUNNY   90  75  62 E7        29.88  HX 100
HERMOSILLO     MOSUNNY   95  64  36 NW5       29.96  HX  97
CD. JUAREZ     SUNNY     97  61  30 SW7       30.01  HX  97
LOS MOCHIS     MOSUNNY   75  66  73 NW9       29.91F
OBREGON        MOSUNNY   91  64  40 CALM      29.90  HX  93

NORTHEASTERN MEXICO

CITY           SKY/WX    TMP DP  RH WIND       PRES   REMARKS
CHIHUAHUA      MOSUNNY   93  48  21 E10       30.13  HX  90
MATAMOROS      PTSUNNY   93  75  55 SE21      30.03  HX 104
MONTERREY      SUNNY     93  59  31 SE12      29.97F HX  92
NUEVO LAREDO   SUNNY     99  72  41 S6        29.94  HX 107
PIEDRAS NEGRAS SUNNY     95  68  41 SE9       29.98F HX  99
REYNOSA        MOSUNNY   97  61  30 SE9       29.96  HX  97
SALTILLO       MOSUNNY   88  57  35 CALM      30.21F
TORREON        MOSUNNY   90  52  27 E9        30.12F
CD. VICTORIA   MOSUNNY   93  64  38 SE18      29.99  HX  95

WESTERN MEXICO

CITY           SKY/WX    TMP DP  RH WIND       PRES   REMARKS
AGUASCALIENTES PTSUNNY   75  52  43 CALM      30.34
COLIMA         PTSUNNY   86  72  62 CALM      30.06F HX  92
GUADALAJARA    MOSUNNY   79  57  47 E3        30.23
MANZANILLO     MOSUNNY   91  77  62 S9        29.90S HAZE    HX 105
MAZATLAN       PTSUNNY   90  72  55 SW12      29.88F HX  96
P. VALLARTA    PTSUNNY   91  75  59 SW12      29.90S HX 102
URUAPAN        MOSUNNY   75  63  64 S9        30.26R
ZACATECAS      PTSUNNY   77  48  36 E6        30.36F

CENTRAL MEXICO

CITY           SKY/WX    TMP DP  RH WIND       PRES   REMARKS
CUERNAVACA     SUNNY     81  52  36 SW9       30.20F
MEXICO CITY    SUNNY     73  41  31 N6        30.37F
MORELIA        MOSUNNY   77  55  47 NE7       30.29
POZA RICA      MOSUNNY   91  75  59 SE7       30.01F HX 102
PUEBLA         MOSUNNY   73  41  31 SE16      30.41F
QUERETARO      PTSUNNY   79  54  41 NE3       30.35F
S. LUIS POTOSI PTSUNNY   77  57  50 CALM      30.31F
TAMPICO        MOSUNNY   90  70  51 SE12      30.02F HX  95
TOLUCA         MOSUNNY   70  39  32 E5        30.45F

SOUTHERN MEXICO

CITY           SKY/WX    TMP DP  RH WIND       PRES   REMARKS
ACAPULCO       SUNNY     90  77  66 SW8       29.90F HX 102
B. DE HUATULCO MOSUNNY   91  77  62 SW8       29.94  HX 105
OAXACA         PTSUNNY   75  54  46 E2        30.28F
P. ESCONDIDO     N/A    N/A N/A N/A MISG        N/A
VERACRUZ       MOSUNNY   90  73  58 E5        30.02F HX  98
ZIHUATANEJO    MOSUNNY   91  77  62 S7        29.91S HX 105

YUCATAN PENINSULA

CITY           SKY/WX    TMP DP  RH WIND       PRES   REMARKS
CAMPECHE       MOSUNNY   95  70  43 E14       29.98F HX 101
CANCUN         MOSUNNY   91  75  59 E7        30.06S HX 102
CHETUMAL       PTSUNNY   91  82  75 E12       30.00F HX 114
CD. DEL CARMEN MOSUNNY   88  79  74 SE12      30.00  HX 102
COZUMEL        MOSUNNY   88  77  70 NE12      30.05F HX 100
MERIDA         MOSUNNY   93  63  36 SE7       30.02F HX  94
MINATITLAN     MOSUNNY   88  68  51 N17       29.98F HX  91
TAPACHULA      PTSUNNY   88  79  74 CALM      29.93F HX 102
TUX. GUTIERREZ PTSUNNY   90  66  45 SE8       30.00F HX  92
VILLAHERMOSA   PTSUNNY   93  72  49 E20       29.99F HX 100

CENTRAL AMERICA

CITY           SKY/WX    TMP DP  RH WIND       PRES   REMARKS
BELIZE CITY    MOSUNNY   90  79  70 E12       30.01F HX 105
MANAGUA        PTCLDY    93  72  49 NE12      29.83F HX 100

CARIBBEAN

CITY           SKY/WX    TMP DP  RH WIND       PRES   REMARKS
ARUBA          MOSUNNY   88  77  70 E23       29.86F HX 100
CURACAO        MOSUNNY   88  75  66 E15       29.89F HX  97
KINGSTON       MOSUNNY   90  75  62 SE26      29.94S HX 100
NASSAU         MOSUNNY   90  72  55 SE7       30.11F HX  96
SAN JUAN       MOSUNNY   88  75  66 NE18      30.03S HX  97
SANTO DOMINGO  MOSUNNY   91  75  59 SE16      29.97S HX 102
ST. CROIX      MOSUNNY   88  73  62 E16       30.02F HX  96
ST. KITTS      MOSUNNY   88  79  74 E17       30.00F HX 102
ST. MAARTEN    MOSUNNY   86  73  66 E13       30.03S HX  93
ST. THOMAS     PTSUNNY   88  75  66 E18       30.02F HX  97

$$



USA.gov is the U.S. government's official web portal to all federal, state and local government web resources and services.